DW7304 Weather Reports


Display with metric or nautical units.
time (UTC)temp
F
wind
direction
speed
MPH
gust
MPH
rain 1hr
in
rain 24hr
in
rain mn
in
humidity
%
barometer
mb
20260906132018 78 59 6.0 16.0 0.00 0.00 0.00 50 1021.5
20260906131117 77 84 8.0 12.0 0.00 0.00 0.00 50 1021.6
20260906130003 78 70 6.0 13.0 0.00 0.00 0.00 51 1021.5
20260906125403 78 79 7.0 14.0 0.00 0.00 0.00 50 1021.6
20260906124503 77 69 6.0 14.0 0.00 0.00 0.00 51 1021.7
20260906123603 77 82 8.0 16.0 0.00 0.00 0.00 52 1022.0
20260906122703 76 82 8.0 15.0 0.00 0.00 0.00 53 1022.0
20260906121803 76 61 8.0 15.0 0.00 0.00 0.00 51 1022.0
20260906120903 76 82 8.0 16.0 0.00 0.00 0.00 52 1022.0
20260906120004 76 79 9.0 16.0 0.00 0.00 0.00 52 1021.9
20260906115403 76 58 9.0 16.0 0.00 0.00 0.00 51 1022.0
20260906114503 75 70 10.0 18.0 0.00 0.00 0.00 53 1022.0
20260906113603 75 71 10.0 19.0 0.00 0.00 0.00 53 1022.0
20260906112703 75 62 8.0 18.0 0.00 0.00 0.00 52 1021.9
20260906112017 75 69 9.0 20.0 0.00 0.00 0.00 54 1021.9
20260906110903 74 71 10.0 19.0 0.00 0.00 0.00 54 1021.9
20260906110004 74 69 11.0 21.0 0.00 0.00 0.00 54 1021.6
20260906105403 74 76 10.0 20.0 0.00 0.00 0.00 54 1021.6
20260906104503 74 76 10.0 16.0 0.00 0.00 0.00 54 1021.9
20260906103603 73 84 10.0 21.0 0.00 0.00 0.00 55 1021.7
20260906102703 73 74 10.0 20.0 0.00 0.00 0.00 55 1021.7
20260906102018 73 85 10.0 19.0 0.00 0.00 0.00 56 1021.9
20260906100903 72 75 11.0 20.0 0.00 0.00 0.00 57 1021.5
20260906100003 72 78 14.0 20.0 0.00 0.00 0.00 57 1021.6
20260906095616 71 79 14.0 20.0 0.00 0.00 0.00 57 1021.6
20260906094503 71 68 12.0 27.0 0.00 0.00 0.00 58 1021.7
20260906093603 71 73 13.0 24.0 0.00 0.00 0.00 58 1021.7
20260906092703 71 75 14.0 24.0 0.00 0.00 0.00 57 1021.7
20260906092018 71 77 14.0 21.0 0.00 0.00 0.00 58 1021.6
20260906090903 71 72 14.0 23.0 0.00 0.00 0.00 59 1021.6
20260906090003 70 72 15.0 24.0 0.00 0.00 0.00 58 1021.6
20260906085622 70 73 15.0 24.0 0.00 0.00 0.00 60 1021.6
20260906084503 69 78 15.0 24.0 0.00 0.00 0.00 60 1021.7
20260906083603 69 76 15.0 26.0 0.00 0.00 0.00 60 1021.7
20260906082703 69 68 14.0 27.0 0.00 0.00 0.00 61 1021.7
20260906081803 69 76 15.0 22.0 0.00 0.00 0.00 62 1021.6
20260906081117 69 80 15.0 24.0 0.00 0.00 0.00 62 1021.5
20260906080003 68 80 17.0 25.0 0.00 0.00 0.00 62 1021.5
20260906075403 68 78 18.0 29.0 0.00 0.00 0.00 62 1021.4
20260906074503 68 75 17.0 34.0 0.00 0.00 0.00 62 1021.3
20260906073603 67 74 17.0 26.0 0.00 0.00 0.00 62 1021.3
20260906072703 67 69 16.0 29.0 0.00 0.00 0.00 63 1021.2
20260906071803 67 78 16.0 27.0 0.00 0.00 0.00 64 1021.2
20260906070903 66 73 15.0 25.0 0.00 0.00 0.00 64 1021.2
20260906070004 66 71 15.0 22.0 0.00 0.00 0.00 65 1021.2
20260906065617 66 72 15.0 31.0 0.00 0.00 0.00 65 1021.2
20260906064503 66 71 16.0 25.0 0.00 0.00 0.00 65 1021.3
20260906063604 65 80 17.0 27.0 0.00 0.00 0.00 65 1021.2
20260906062703 65 81 16.0 24.0 0.00 0.00 0.00 65 1021.0
20260906061803 65 75 17.0 27.0 0.00 0.00 0.00 64 1020.9
20260906060903 65 69 17.0 33.0 0.00 0.00 0.00 65 1020.9
20260906060004 64 74 17.0 26.0 0.00 0.00 0.00 66 1020.9
20260906055403 64 70 16.0 24.0 0.00 0.00 0.00 67 1021.0
20260906054503 64 79 17.0 24.0 0.00 0.00 0.00 68 1020.7
20260906053603 64 80 17.0 26.0 0.00 0.00 0.00 69 1020.7
20260906052703 64 76 18.0 26.0 0.00 0.00 0.00 69 1020.6
20260906051803 64 78 17.0 28.0 0.00 0.00 0.00 69 1020.3
20260906050903 64 72 17.0 32.0 0.00 0.00 0.00 69 1020.3
20260906050004 63 73 18.0 27.0 0.00 0.00 0.00 71 1020.2
20260906045403 63 75 18.0 27.0 0.00 0.00 0.00 71 1020.3
20260906044718 63 72 18.0 25.0 0.00 0.00 0.00 72 1020.2
20260906043603 63 77 17.0 29.0 0.00 0.00 0.00 72 1020.1
20260906042917 63 76 18.0 29.0 0.00 0.00 0.00 72 1019.9
20260906041803 64 77 17.0 27.0 0.00 0.00 0.00 71 1019.9
20260906040903 64 77 18.0 30.0 0.00 0.00 0.00 70 1019.8
20260906040004 64 79 17.0 25.0 0.00 0.00 0.00 69 1019.8
20260906035403 64 76 17.0 25.0 0.00 0.00 0.00 69 1019.7
20260906034718 64 78 18.0 25.0 0.00 0.00 0.00 69 1019.7
20260906033604 64 81 17.0 26.0 0.00 0.00 0.00 69 1019.8
20260906032703 65 79 17.0 26.0 0.00 0.00 0.00 69 1019.9
20260906031804 65 76 17.0 24.0 0.00 0.00 0.00 69 1019.7
20260906030903 65 77 17.0 28.0 0.00 0.00 0.00 68 1019.5
20260906030004 65 77 16.0 24.0 0.00 0.00 0.00 67 1019.5
20260906025403 65 80 14.0 22.0 0.00 0.00 0.00 66 1019.6
20260906024503 66 78 14.0 23.0 0.00 0.00 0.00 66 1019.5
20260906023603 66 78 14.0 21.0 0.00 0.00 0.00 65 1019.6
20260906022703 66 78 14.0 21.0 0.00 0.00 0.00 65 1019.5
20260906021803 66 69 14.0 23.0 0.00 0.00 0.00 65 1019.4
20260906021117 66 74 13.0 22.0 0.00 0.00 0.00 64 1019.4
20260906020218 67 71 13.0 20.0 0.00 0.00 0.00 64 1019.4
20260906015403 67 77 12.0 18.0 0.00 0.00 0.00 64 1019.5
20260906014503 67 78 13.0 20.0 0.00 0.00 0.00 64 1019.5
20260906013603 67 76 12.0 19.0 0.00 0.00 0.00 64 1019.5
20260906012703 67 80 12.0 18.0 0.00 0.00 0.00 65 1019.6
20260906011803 67 81 13.0 21.0 0.00 0.00 0.00 64 1019.5
20260906010903 67 75 13.0 20.0 0.00 0.00 0.00 64 1019.5
20260906010218 67 72 14.0 21.0 0.00 0.00 0.00 64 1019.5
20260906005403 67 79 15.0 23.0 0.00 0.00 0.00 64 1019.4
20260906004503 67 80 15.0 21.0 0.00 0.00 0.00 64 1019.4
20260906003603 67 76 14.0 21.0 0.00 0.00 0.00 64 1019.3
20260906002917 67 77 15.0 23.0 0.00 0.00 0.00 64 1019.2
20260906001803 67 78 16.0 22.0 0.00 0.00 0.00 64 1019.2
20260906000903 67 71 15.0 23.0 0.00 0.00 0.00 65 1019.2
20260906000003 67 79 14.0 21.0 0.00 0.00 0.00 65 1019.3
20260905235403 67 80 15.0 22.0 0.00 0.00 0.00 65 1019.2
20260905234503 67 72 15.0 24.0 0.00 0.00 0.00 65 1019.1
20260905233817 67 75 15.0 22.0 0.00 0.00 0.00 65 1019.2
20260905232703 67 77 15.0 25.0 0.00 0.00 0.00 65 1019.1
20260905231804 67 77 15.0 22.0 0.00 0.00 0.00 65 1019.1
20260905230903 67 80 14.0 22.0 0.00 0.00 0.00 65 1019.1
20260905230004 67 76 14.0 21.0 0.00 0.00 0.00 65 1019.2
20260905225616 67 74 13.0 21.0 0.00 0.00 0.00 65 1019.1
20260905224503 68 81 15.0 21.0 0.00 0.00 0.00 64 1018.9
20260905223604 68 76 16.0 23.0 0.00 0.00 0.00 64 1018.9
20260905222916 68 74 17.0 22.0 0.00 0.00 0.00 64 1018.8
20260905221803 68 81 15.0 22.0 0.00 0.00 0.00 63 1018.8
20260905220903 69 79 14.0 20.0 0.00 0.00 0.00 63 1018.9
20260905220004 69 83 15.0 25.0 0.00 0.00 0.00 62 1018.8
20260905215403 69 81 15.0 23.0 0.00 0.00 0.00 63 1018.8
20260905214503 69 74 15.0 21.0 0.00 0.00 0.00 62 1018.7
20260905213817 69 76 14.0 23.0 0.00 0.00 0.00 62 1018.8
20260905212703 69 74 14.0 20.0 0.00 0.00 0.00 62 1018.8
20260905211803 69 79 14.0 21.0 0.00 0.00 0.00 62 1018.8
20260905210903 69 79 16.0 28.0 0.00 0.00 0.00 61 1018.7
20260905210004 69 81 15.0 22.0 0.00 0.00 0.00 62 1018.5
20260905205403 69 75 15.0 22.0 0.00 0.00 0.00 63 1018.7
20260905204503 69 81 13.0 22.0 0.00 0.00 0.00 64 1018.7
20260905203603 69 82 14.0 22.0 0.00 0.00 0.00 64 1018.8
20260905202918 69 77 14.0 20.0 0.00 0.00 0.00 65 1018.6
20260905201803 69 77 14.0 22.0 0.00 0.00 0.00 64 1018.5
20260905200903 69 79 14.0 21.0 0.00 0.00 0.00 65 1018.5
20260905200003 69 74 15.0 22.0 0.00 0.00 0.00 65 1018.4
20260905195403 69 75 15.0 22.0 0.00 0.00 0.00 65 1018.3
20260905194503 69 73 15.0 25.0 0.00 0.00 0.00 66 1018.3
20260905193603 69 72 15.0 22.0 0.00 0.00 0.00 66 1018.3
20260905192703 69 74 14.0 21.0 0.00 0.00 0.00 66 1018.2
20260905191803 70 66 15.0 21.0 0.00 0.00 0.00 66 1018.1
20260905190903 70 65 13.0 21.0 0.00 0.00 0.00 66 1018.1
20260905190004 70 75 14.0 21.0 0.00 0.00 0.00 65 1018.0
20260905185403 70 70 14.0 21.0 0.00 0.00 0.00 65 1017.9
20260905184503 70 72 13.0 23.0 0.00 0.00 0.00 65 1017.9
20260905183603 70 78 13.0 21.0 0.00 0.00 0.00 65 1017.5
20260905182703 70 82 13.0 19.0 0.00 0.00 0.00 65 1017.7
20260905181803 70 77 14.0 21.0 0.00 0.00 0.00 64 1017.5
20260905180903 71 78 15.0 21.0 0.00 0.00 0.00 65 1017.4
20260905180004 71 75 14.0 23.0 0.00 0.00 0.00 64 1017.2
20260905175403 71 75 13.0 20.0 0.00 0.00 0.00 64 1017.4
20260905174718 71 79 12.0 21.0 0.00 0.00 0.00 64 1017.1
20260905173603 71 67 12.0 18.0 0.00 0.00 0.00 63 1017.2
20260905172703 72 73 12.0 19.0 0.00 0.00 0.00 63 1017.1
20260905172018 72 79 14.0 20.0 0.00 0.00 0.00 62 1017.0
20260905170903 72 72 13.0 21.0 0.00 0.00 0.00 63 1016.9
20260905170003 73 75 11.0 19.0 0.00 0.00 0.00 63 1017.1
20260905165403 73 75 9.0 17.0 0.00 0.00 0.00 63 1016.9
20260905164503 73 76 11.0 18.0 0.00 0.00 0.00 63 1016.8
20260905163603 74 82 11.0 20.0 0.00 0.00 0.00 62 1016.6
20260905162703 74 73 9.0 16.0 0.00 0.00 0.00 62 1016.5
20260905161803 74 70 8.0 16.0 0.00 0.00 0.00 61 1016.5
20260905160903 75 71 9.0 16.0 0.00 0.00 0.00 60 1016.6
20260905160004 76 64 8.0 13.0 0.00 0.00 0.00 58 1016.5
20260905155403 79 61 7.0 14.0 0.00 0.00 0.00 56 1016.5
20260905154717 81 49 4.0 15.0 0.00 0.00 0.00 53 1016.4
20260905153816 84 326 0.0 2.0 0.00 0.00 0.00 51 1016.5
20260905152703 84 286 1.0 4.0 0.00 0.00 0.00 51 1016.4
20260905151803 84 286 2.0 6.0 0.00 0.00 0.00 50 1016.3
20260905151117 83 264 2.0 9.0 0.00 0.00 0.00 52 1016.3
20260905150003 82 224 3.0 9.0 0.00 0.00 0.00 52 1016.1
20260905145403 81 248 5.0 11.0 0.00 0.00 0.00 54 1016.0
20260905144503 81 212 4.0 7.0 0.00 0.00 0.00 53 1015.9
20260905143818 80 188 5.0 11.0 0.00 0.00 0.00 52 1015.9
20260905142917 81 238 6.0 13.0 0.00 0.00 0.00 52 1015.9
20260905141803 81 235 7.0 14.0 0.00 0.00 0.00 52 1016.0
20260905140903 81 221 6.0 11.0 0.00 0.00 0.00 51 1016.0
20260905140004 81 225 6.0 10.0 0.00 0.00 0.00 51 1016.1
20260905135403 81 212 7.0 10.0 0.00 0.00 0.00 50 1016.1
20260905134503 81 223 7.0 12.0 0.00 0.00 0.00 51 1016.1
20260905133818 81 227 6.0 13.0 0.00 0.00 0.00 51 1016.1
20260905132917 82 231 5.0 13.0 0.00 0.00 0.00 50 1016.1